Flag for Canada Weather past 2 weeks in Peterborough, Ontario, Canada

Now
30 °F

Overcast.


Feels Like: 21 °F
Forecast: 6 / 30 °F
Wind: 10 mph from Southwest

Location: Peterborough Airport

Current Time: Mar 3, 2015 at 10:33:34 PM

Latest Report: Mar 3, 2015 at 10:00 PM


Visibility: 9 mi

Pressure: 29.57 "Hg

Humidity: 93%

Dew point: 28 °F

Location of PeterboroughLocation

Historic Weather in Peterborough — Graph

°F

Peterborough temperature yesterday

Maximum temperature yesterday: 25 °F (at 11:00 AM)
Minimum temperature yesterday: 1 °F (at 11:00 PM)
Average temperature yesterday: 18 °F

Past Weeks' High & Low Weather Summary

 TemperatureHumidityPressure
High28 °F (Mar 3, 8:55 PM)100% (Feb 21, 7:00 PM)30.77 "Hg (Feb 21, 7:00 PM)
Low-18 °F (Feb 23, 9:00 PM)40% (Feb 26, 2:00 PM)29.54 "Hg (Mar 3, 8:55 PM)
Average5 °F74%30.15 "Hg
* Reported Feb 16 9:00 PM — Mar 3 9:00 PM, Peterborough, Weather by CustomWeather, © 2015

Note: Actual official high and low records may vary slightly from our data, if they occured in-between our weather recording intervals... More about our weather records

Advertising

Peterborough weather history for previous 24 hours

 ConditionsComfort  
Time TempWeatherWind HumidityBarometerVisibility
9:00 PM
Tue, Mar 3
28 °FLight snow. Mostly cloudy.7 mph93%29.54 "Hg6 mi
8:55 PM28 °FLight snow. Low clouds.6 mph93%29.54 "Hg6 mi
8:02 PM27 °FLight snow. Low clouds.9 mph100%29.57 "Hg1 mi
7:00 PM25 °FLight snow. Low clouds.8 mph100%29.60 "Hg1 mi
6:00 PM23 °FLight snow. Cloudy.8 mph93%29.66 "Hg3 mi
5:03 PM21 °FLight snow. Overcast.9 mph100%29.71 "Hg2 mi
5:00 PM21 °FLight snow. Overcast.9 mph100%29.72 "Hg2 mi
4:55 PM21 °FLight snow. Overcast.13 mph100%29.72 "Hg2 mi
4:02 PM21 °FLight snow. More clouds than sun.10 mph93%29.80 "Hg5 mi
3:00 PM21 °FLight snow. Overcast.10 mph93%29.89 "Hg1 mi
2:00 PM21 °FLight snow. Overcast.14 mph86%29.98 "Hg2 mi
1:03 PM21 °FLight snow. Mostly cloudy.17 mph74%30.05 "Hg5 mi
12:00 PM21 °FCloudy.16 mph74%30.14 "Hg9 mi
11:00 AM16 °FOvercast.2 mph79%30.21 "Hg9 mi
10:00 AM10 °FLight snow. Broken clouds.3 mph85%30.26 "Hg9 mi
9:00 AM1 °FScattered clouds.No wind92%30.29 "Hg9 mi
8:00 AM-4 °FScattered clouds.No wind84%30.31 "Hg9 mi
7:00 AM-8 °FMostly cloudy.No wind84%30.35 "Hg9 mi
6:00 AM-9 °FClear.No wind84%30.37 "Hg9 mi
5:00 AM-11 °FClear.No wind84%30.39 "Hg9 mi
4:00 AM-9 °FClear.No wind84%30.38 "Hg9 mi
3:00 AM-8 °FClear.2 mph92%30.38 "Hg9 mi
2:00 AM-4 °FClear.No wind84%30.39 "Hg9 mi
1:00 AM-4 °FClear.No wind92%30.40 "Hg9 mi
12:00 AM-2 °FClear.3 mph92%30.40 "Hg9 mi
11:00 PM
Mon, Mar 2
1 °FClear.6 mph92%30.42 "Hg9 mi
10:00 PM7 °FClear.3 mph85%30.42 "Hg9 mi
Weather by CustomWeather, © 2015

See weather overviewHow to use our weather pages